Location: Leverkusen
(51.0459°N, 7.0192°E)
Time: 01:45:49
(UTC+01:00)

ISS - Pass Details

Date: 24 January 2019
Orbit: 403 x 411 km, 51.6° (Epoch: 20 February)

Event Time Altitude Azimuth Distance (km) Brightness Sun altitude
Rises 19:17:31 0° 224° (SW) 2,328 0.8 -20.0°
Reaches altitude 10° 19:19:43 10° 214° (SW) 1,472 -0.5 -20.3°
Enters shadow 19:21:51 27° 180° (S) 820 -2.3 -20.6°
